LRC651 MGGT-MROC

Flight info

Callsign LRC651
Flight time 1h 10m
Altitude 35000
Route LAGOX2A LAGOX DCT KAPAN UG436 LIB BARRA3L
Aircraft A320/M-SDE3FGHIRWY/LB1

Departure

Time 2026-04-15 18:37
Airport La Aurora International Airport (MGGT)

Arrival

Time 2026-04-15 19:48
Airport Juan Santamaría International Airport (MROC)
Time Latitude Longitude Altitude Speed Heading
2026-04-15 17:31 14.59073 -90.52924 4930 ft 0 kts 107°
2026-04-15 18:22 14.59076 -90.52935 4930 ft 4 kts 107°
2026-04-15 18:22 14.59084 -90.52962 4930 ft 4 kts 104°
2026-04-15 18:23 14.59084 -90.52985 4930 ft 4 kts 40°
2026-04-15 18:23 14.59066 -90.52994 4930 ft 4 kts 17°
2026-04-15 18:23 14.59049 -90.53000 4930 ft 0 kts 17°
2026-04-15 18:25 14.59057 -90.52997 4930 ft 2 kts 17°
2026-04-15 18:26 14.59080 -90.52990 4933 ft 4 kts 17°
2026-04-15 18:26 14.59116 -90.52978 4929 ft 7 kts 18°
2026-04-15 18:26 14.59165 -90.52962 4932 ft 8 kts 18°
2026-04-15 18:26 14.59220 -90.52936 4931 ft 9 kts 39°
2026-04-15 18:27 14.59242 -90.52873 4931 ft 10 kts 96°
2026-04-15 18:27 14.59222 -90.52797 4931 ft 11 kts 107°
2026-04-15 18:27 14.59196 -90.52721 4930 ft 11 kts 121°
2026-04-15 18:27 14.59137 -90.52705 4930 ft 8 kts 193°
2026-04-15 18:28 14.59086 -90.52721 4930 ft 7 kts 196°
2026-04-15 18:28 14.59034 -90.52738 4930 ft 9 kts 198°
2026-04-15 18:28 14.58973 -90.52758 4930 ft 10 kts 198°
2026-04-15 18:28 14.58904 -90.52780 4932 ft 11 kts 197°
2026-04-15 18:29 14.58827 -90.52804 4930 ft 12 kts 197°
2026-04-15 18:29 14.58753 -90.52819 4931 ft 10 kts 175°
2026-04-15 18:29 14.58702 -90.52778 4929 ft 10 kts 116°
2026-04-15 18:29 14.58676 -90.52717 4924 ft 5 kts 150°
2026-04-15 18:30 14.58629 -90.52721 4924 ft 8 kts 197°
2026-04-15 18:30 14.58571 -90.52740 4922 ft 9 kts 197°
2026-04-15 18:30 14.58509 -90.52760 4920 ft 9 kts 197°
2026-04-15 18:30 14.58452 -90.52778 4922 ft 8 kts 197°
2026-04-15 18:31 14.58406 -90.52793 4919 ft 6 kts 197°
2026-04-15 18:31 14.58368 -90.52806 4921 ft 5 kts 197°
2026-04-15 18:31 14.58334 -90.52817 4919 ft 5 kts 197°
2026-04-15 18:31 14.58302 -90.52827 4916 ft 5 kts 197°
2026-04-15 18:32 14.58267 -90.52838 4915 ft 6 kts 197°
2026-04-15 18:32 14.58214 -90.52855 4913 ft 11 kts 198°
2026-04-15 18:32 14.58142 -90.52879 4912 ft 11 kts 198°
2026-04-15 18:32 14.58075 -90.52901 4910 ft 10 kts 197°
2026-04-15 18:33 14.58007 -90.52923 4895 ft 12 kts 197°
2026-04-15 18:33 14.57911 -90.52954 4902 ft 17 kts 197°
2026-04-15 18:33 14.57786 -90.52993 4893 ft 21 kts 197°
2026-04-15 18:33 14.57642 -90.53040 4893 ft 23 kts 197°
2026-04-15 18:34 14.57483 -90.53092 4884 ft 24 kts 197°
2026-04-15 18:34 14.57368 -90.53131 4884 ft 16 kts 199°
2026-04-15 18:34 14.57266 -90.53164 4884 ft 15 kts 197°
2026-04-15 18:34 14.57184 -90.53190 4881 ft 9 kts 197°
2026-04-15 18:35 14.57125 -90.53209 4884 ft 8 kts 197°
2026-04-15 18:35 14.57080 -90.53209 4885 ft 5 kts 148°
2026-04-15 18:35 14.57065 -90.53184 4883 ft 4 kts 108°
2026-04-15 18:35 14.57060 -90.53158 4885 ft 3 kts 84°
2026-04-15 18:36 14.57083 -90.53145 4885 ft 7 kts
2026-04-15 18:36 14.57102 -90.53142 4885 ft 0 kts 12°
2026-04-15 18:37 14.57278 -90.53088 4880 ft 62 kts 18°
2026-04-15 18:37 14.57902 -90.52886 4899 ft 123 kts 17°
2026-04-15 18:37 14.58878 -90.52570 4952 ft 168 kts 18°
2026-04-15 18:37 14.59976 -90.52238 5682 ft 163 kts 15°
2026-04-15 18:38 14.61074 -90.51986 6341 ft 161 kts 13°
2026-04-15 18:38 14.62177 -90.51749 6781 ft 166 kts 13°
2026-04-15 18:38 14.63383 -90.51488 6934 ft 188 kts 12°
2026-04-15 18:38 14.64743 -90.51190 7058 ft 211 kts 13°
2026-04-15 18:39 14.66091 -90.50511 7202 ft 231 kts 44°
2026-04-15 18:39 14.66890 -90.49034 7480 ft 247 kts 82°
2026-04-15 18:39 14.66677 -90.47275 8122 ft 254 kts 111°
2026-04-15 18:39 14.66001 -90.45596 8850 ft 254 kts 113°
2026-04-15 18:40 14.65290 -90.43916 9514 ft 257 kts 113°
2026-04-15 18:40 14.64564 -90.42220 10200 ft 259 kts 113°
2026-04-15 18:40 14.63830 -90.40507 10887 ft 262 kts 113°
2026-04-15 18:40 14.63096 -90.38778 11549 ft 267 kts 113°
2026-04-15 18:41 14.62324 -90.36949 11770 ft 290 kts 113°
2026-04-15 18:41 14.61490 -90.34968 11934 ft 312 kts 113°
2026-04-15 18:41 14.60590 -90.32834 12080 ft 335 kts 113°
2026-04-15 18:41 14.59646 -90.30594 12543 ft 344 kts 113°
2026-04-15 18:42 14.58683 -90.28316 13173 ft 349 kts 113°
2026-04-15 18:42 14.57713 -90.26008 13771 ft 352 kts 112°
2026-04-15 18:42 14.56734 -90.23676 14371 ft 356 kts 112°
2026-04-15 18:42 14.55744 -90.21320 14963 ft 360 kts 112°
2026-04-15 18:43 14.54744 -90.18941 15545 ft 363 kts 112°
2026-04-15 18:43 14.53733 -90.16544 16085 ft 366 kts 112°
2026-04-15 18:43 14.52710 -90.14121 16629 ft 370 kts 112°
2026-04-15 18:43 14.51674 -90.11681 17174 ft 373 kts 114°
2026-04-15 18:44 14.50332 -90.09379 17697 ft 377 kts 127°
2026-04-15 18:44 14.48522 -90.07395 18198 ft 382 kts 139°
2026-04-15 18:44 14.46322 -90.05838 18665 ft 387 kts 151°
2026-04-15 18:44 14.43870 -90.04663 19130 ft 391 kts 155°
2026-04-15 18:45 14.41417 -90.03527 19603 ft 393 kts 155°
2026-04-15 18:45 14.38912 -90.02363 20039 ft 397 kts 154°
2026-04-15 18:45 14.36384 -90.01186 20462 ft 400 kts 154°
2026-04-15 18:45 14.33843 -89.99999 20878 ft 403 kts 154°
2026-04-15 18:46 14.31277 -89.98800 21299 ft 406 kts 154°
2026-04-15 18:46 14.28697 -89.97592 21688 ft 409 kts 154°
2026-04-15 18:46 14.26096 -89.96375 22070 ft 412 kts 154°
2026-04-15 18:46 14.23471 -89.95152 22460 ft 415 kts 155°
2026-04-15 18:47 14.20828 -89.93922 22834 ft 418 kts 155°
2026-04-15 18:47 14.18167 -89.92685 23211 ft 422 kts 155°
2026-04-15 18:47 14.15486 -89.91439 23588 ft 424 kts 155°
2026-04-15 18:47 14.12790 -89.90183 23938 ft 427 kts 154°
2026-04-15 18:48 14.10075 -89.88916 24282 ft 430 kts 154°
2026-04-15 18:48 14.07383 -89.87554 24615 ft 432 kts 148°
2026-04-15 18:48 14.04929 -89.85770 24948 ft 433 kts 138°
2026-04-15 18:48 14.02801 -89.83575 25260 ft 434 kts 128°
2026-04-15 18:49 14.00895 -89.81146 25561 ft 437 kts 128°
2026-04-15 18:49 13.98981 -89.78700 25869 ft 440 kts 128°
2026-04-15 18:49 13.97054 -89.76238 26176 ft 443 kts 128°
2026-04-15 18:49 13.95109 -89.73761 26492 ft 446 kts 128°
2026-04-15 18:50 13.93173 -89.71305 26787 ft 449 kts 128°
2026-04-15 18:50 13.91199 -89.68802 27079 ft 452 kts 128°
2026-04-15 18:50 13.89214 -89.66285 27350 ft 455 kts 128°
2026-04-15 18:50 13.87214 -89.63745 27635 ft 457 kts 128°
2026-04-15 18:51 13.85207 -89.61195 27920 ft 460 kts 128°
2026-04-15 18:51 13.83184 -89.58626 28161 ft 463 kts 128°
2026-04-15 18:51 13.81149 -89.56044 28423 ft 466 kts 128°
2026-04-15 18:51 13.79103 -89.53452 28703 ft 468 kts 128°
2026-04-15 18:52 13.77043 -89.50844 28984 ft 471 kts 128°
2026-04-15 18:52 13.74971 -89.48222 29245 ft 473 kts 128°
2026-04-15 18:52 13.72892 -89.45587 29503 ft 476 kts 128°
2026-04-15 18:52 13.70804 -89.42937 29762 ft 478 kts 128°
2026-04-15 18:53 13.68704 -89.40273 30007 ft 480 kts 128°
2026-04-15 18:53 13.66594 -89.37601 30243 ft 483 kts 128°
2026-04-15 18:53 13.64473 -89.34920 30488 ft 484 kts 128°
2026-04-15 18:53 13.62341 -89.32225 30726 ft 486 kts 128°
2026-04-15 18:54 13.60277 -89.29617 30952 ft 488 kts 128°
2026-04-15 18:54 13.58060 -89.26814 31219 ft 489 kts 128°
2026-04-15 18:54 13.55916 -89.24103 31555 ft 488 kts 128°
2026-04-15 18:54 13.53782 -89.21403 31893 ft 487 kts 128°
2026-04-15 18:55 13.51647 -89.18704 32216 ft 486 kts 128°
2026-04-15 18:55 13.49517 -89.16011 32535 ft 485 kts 128°
2026-04-15 18:55 13.47420 -89.13357 32851 ft 484 kts 128°
2026-04-15 18:55 13.45299 -89.10674 33170 ft 483 kts 127°
2026-04-15 18:56 13.43181 -89.07998 33462 ft 483 kts 127°
2026-04-15 18:56 13.41061 -89.05319 33762 ft 482 kts 127°
2026-04-15 18:56 13.38950 -89.02646 34063 ft 481 kts 127°
2026-04-15 18:56 13.36845 -88.99977 34325 ft 481 kts 127°
2026-04-15 18:57 13.34741 -88.97308 34598 ft 481 kts 127°
2026-04-15 18:57 13.32640 -88.94638 34817 ft 481 kts 127°
2026-04-15 18:57 13.30542 -88.91976 34886 ft 477 kts 127°
2026-04-15 18:58 13.26394 -88.86722 34887 ft 472 kts 127°
2026-04-15 18:58 13.22272 -88.81482 34880 ft 472 kts 127°
2026-04-15 18:59 13.18145 -88.76251 34878 ft 472 kts 127°
2026-04-15 18:59 13.14008 -88.71025 34868 ft 472 kts 127°
2026-04-15 19:00 13.09875 -88.65802 34869 ft 471 kts 127°
2026-04-15 19:00 13.05779 -88.60611 34867 ft 471 kts 127°
2026-04-15 19:01 13.01616 -88.55357 34864 ft 471 kts 128°
2026-04-15 19:01 12.97479 -88.50148 34858 ft 471 kts 128°
2026-04-15 19:02 12.93370 -88.44970 34858 ft 471 kts 127°
2026-04-15 19:02 12.89240 -88.39752 34859 ft 471 kts 127°
2026-04-15 19:03 12.85108 -88.34540 34858 ft 471 kts 128°
2026-04-15 19:03 12.80978 -88.29328 34857 ft 470 kts 128°
2026-04-15 19:04 12.76854 -88.24130 34856 ft 470 kts 128°
2026-04-15 19:04 12.72724 -88.18944 34853 ft 470 kts 128°
2026-04-15 19:05 12.68598 -88.13761 34850 ft 469 kts 128°
2026-04-15 19:05 12.64476 -88.08573 34852 ft 469 kts 128°
2026-04-15 19:06 12.60353 -88.03393 34856 ft 470 kts 128°
2026-04-15 19:06 12.56882 -87.99033 34857 ft 480 kts 128°
2026-04-15 19:07 12.52632 -87.93710 34860 ft 484 kts 128°
2026-04-15 19:07 12.48364 -87.88377 34859 ft 485 kts 128°
2026-04-15 19:08 12.44100 -87.83043 34867 ft 484 kts 128°
2026-04-15 19:08 12.39846 -87.77709 34873 ft 484 kts 128°
2026-04-15 19:09 12.35587 -87.72383 34872 ft 483 kts 128°
2026-04-15 19:09 12.31326 -87.67062 34873 ft 483 kts 128°
2026-04-15 19:10 12.27060 -87.61741 34876 ft 483 kts 128°
2026-04-15 19:10 12.22802 -87.56427 34875 ft 483 kts 128°
2026-04-15 19:11 12.18544 -87.51106 34871 ft 483 kts 128°
2026-04-15 19:11 12.14289 -87.45781 34870 ft 484 kts 128°
2026-04-15 19:12 12.10018 -87.40464 34875 ft 484 kts 129°
2026-04-15 19:12 12.05739 -87.35139 34877 ft 485 kts 129°
2026-04-15 19:13 12.01454 -87.29806 34880 ft 486 kts 129°
2026-04-15 19:13 11.97163 -87.24475 34890 ft 485 kts 129°
2026-04-15 19:14 11.92886 -87.19150 34901 ft 484 kts 129°
2026-04-15 19:14 11.88648 -87.13872 34899 ft 484 kts 129°
2026-04-15 19:15 11.84379 -87.08563 34889 ft 483 kts 129°
2026-04-15 19:15 11.80103 -87.03266 34881 ft 484 kts 129°
2026-04-15 19:16 11.75826 -86.97971 34876 ft 483 kts 129°
2026-04-15 19:16 11.71553 -86.92674 34873 ft 484 kts 129°
2026-04-15 19:17 11.67277 -86.87368 34870 ft 484 kts 129°
2026-04-15 19:17 11.62999 -86.82065 34868 ft 484 kts 130°
2026-04-15 19:18 11.58721 -86.76764 34867 ft 484 kts 130°
2026-04-15 19:18 11.52298 -86.68818 34868 ft 485 kts 130°
2026-04-15 19:19 11.48004 -86.63513 34872 ft 485 kts 130°
2026-04-15 19:19 11.43706 -86.58211 34876 ft 485 kts 130°
2026-04-15 19:20 11.39440 -86.52935 34886 ft 486 kts 130°
2026-04-15 19:20 11.35140 -86.47628 34890 ft 486 kts 130°
2026-04-15 19:21 11.30837 -86.42320 34895 ft 486 kts 130°
2026-04-15 19:21 11.26534 -86.37015 34897 ft 486 kts 130°
2026-04-15 19:22 11.22224 -86.31708 34899 ft 486 kts 130°
2026-04-15 19:22 11.17925 -86.26407 34898 ft 485 kts 130°
2026-04-15 19:23 11.13625 -86.21114 34897 ft 485 kts 130°
2026-04-15 19:23 11.09322 -86.15818 34898 ft 485 kts 130°
2026-04-15 19:24 11.05026 -86.10528 34900 ft 485 kts 130°
2026-04-15 19:24 11.00725 -86.05245 34899 ft 484 kts 130°
2026-04-15 19:25 10.96426 -85.99965 34894 ft 484 kts 130°
2026-04-15 19:25 10.92160 -85.94718 34890 ft 485 kts 130°
2026-04-15 19:26 10.87854 -85.89441 34888 ft 485 kts 130°
2026-04-15 19:26 10.83504 -85.84188 34891 ft 485 kts 131°
2026-04-15 19:27 10.79089 -85.79001 34895 ft 485 kts 132°
2026-04-15 19:27 10.74703 -85.73837 34894 ft 485 kts 131°
2026-04-15 19:28 10.70444 -85.68523 34888 ft 485 kts 129°
2026-04-15 19:28 10.66242 -85.63169 34886 ft 484 kts 130°
2026-04-15 19:29 10.62017 -85.57847 34885 ft 484 kts 130°
2026-04-15 19:29 10.58208 -85.52222 34374 ft 487 kts 118°
2026-04-15 19:30 10.56655 -85.49125 33377 ft 494 kts 117°
2026-04-15 19:30 10.55160 -85.46028 33027 ft 484 kts 116°
2026-04-15 19:30 10.53708 -85.42961 32574 ft 478 kts 116°
2026-04-15 19:30 10.52279 -85.39930 32063 ft 473 kts 116°
2026-04-15 19:31 10.50856 -85.36935 31529 ft 469 kts 116°
2026-04-15 19:31 10.49435 -85.33971 31019 ft 464 kts 116°
2026-04-15 19:31 10.48018 -85.31045 30514 ft 460 kts 116°
2026-04-15 19:31 10.46607 -85.28145 30016 ft 456 kts 116°
2026-04-15 19:32 10.45209 -85.25274 29511 ft 451 kts 116°
2026-04-15 19:32 10.43824 -85.22427 29011 ft 447 kts 116°
2026-04-15 19:32 10.42470 -85.19643 28506 ft 443 kts 115°
2026-04-15 19:32 10.41109 -85.16849 28017 ft 440 kts 115°
2026-04-15 19:33 10.39761 -85.14079 27503 ft 436 kts 115°
2026-04-15 19:33 10.38426 -85.11331 26993 ft 432 kts 115°
2026-04-15 19:33 10.37875 -85.10197 26781 ft 431 kts 115°
2026-04-15 19:34 10.36835 -85.08052 26382 ft 428 kts 115°
2026-04-15 19:34 10.35522 -85.05352 25879 ft 424 kts 114°
2026-04-15 19:34 10.34226 -85.02684 25371 ft 420 kts 114°
2026-04-15 19:35 10.32937 -85.00029 24876 ft 417 kts 114°
2026-04-15 19:35 10.31663 -84.97406 24376 ft 413 kts 114°
2026-04-15 19:35 10.30401 -84.94803 23874 ft 409 kts 114°
2026-04-15 19:35 10.29148 -84.92221 23380 ft 405 kts 114°
2026-04-15 19:36 10.27918 -84.89697 23223 ft 393 kts 114°
2026-04-15 19:36 10.26721 -84.87242 22982 ft 384 kts 114°
2026-04-15 19:36 10.25547 -84.84832 22602 ft 379 kts 114°
2026-04-15 19:36 10.24391 -84.82450 21958 ft 373 kts 114°
2026-04-15 19:37 10.23231 -84.80055 20693 ft 383 kts 114°
2026-04-15 19:37 10.22052 -84.77629 19830 ft 380 kts 115°
2026-04-15 19:37 10.20877 -84.75218 18812 ft 382 kts 115°
2026-04-15 19:37 10.19700 -84.72804 17802 ft 382 kts 115°
2026-04-15 19:38 10.18524 -84.70386 16796 ft 381 kts 115°
2026-04-15 19:38 10.17349 -84.67975 15784 ft 381 kts 115°
2026-04-15 19:38 10.16176 -84.65569 14769 ft 380 kts 115°
2026-04-15 19:38 10.14829 -84.63279 13758 ft 378 kts 129°
2026-04-15 19:39 10.12917 -84.61472 12507 ft 380 kts 146°
2026-04-15 19:39 10.10730 -84.60160 11952 ft 366 kts 150°
2026-04-15 19:39 10.08576 -84.58880 11502 ft 349 kts 149°
2026-04-15 19:39 10.06523 -84.57640 10703 ft 345 kts 149°
2026-04-15 19:40 10.04503 -84.56411 10290 ft 330 kts 148°
2026-04-15 19:40 10.02611 -84.55257 10212 ft 306 kts 149°
2026-04-15 19:40 10.00848 -84.54186 10099 ft 285 kts 149°
2026-04-15 19:40 9.99200 -84.53189 9981 ft 268 kts 149°
2026-04-15 19:41 9.97623 -84.52235 9826 ft 261 kts 149°
2026-04-15 19:41 9.96054 -84.51284 9407 ft 265 kts 149°
2026-04-15 19:41 9.94465 -84.50322 9020 ft 268 kts 149°
2026-04-15 19:41 9.92863 -84.49352 8628 ft 268 kts 149°
2026-04-15 19:42 9.91377 -84.48314 8281 ft 251 kts 133°
2026-04-15 19:42 9.90498 -84.46854 7950 ft 238 kts 105°
2026-04-15 19:42 9.90377 -84.45228 7605 ft 229 kts 79°
2026-04-15 19:42 9.90859 -84.43723 7286 ft 221 kts 69°
2026-04-15 19:43 9.91397 -84.42285 7013 ft 211 kts 69°
2026-04-15 19:43 9.91891 -84.40952 6716 ft 194 kts 69°
2026-04-15 19:43 9.92352 -84.39702 6447 ft 186 kts 69°
2026-04-15 19:43 9.92798 -84.38501 6195 ft 178 kts 69°
2026-04-15 19:44 9.93223 -84.37356 5987 ft 169 kts 69°
2026-04-15 19:44 9.93634 -84.36259 5782 ft 165 kts 69°
2026-04-15 19:44 9.94039 -84.35182 5571 ft 163 kts 69°
2026-04-15 19:44 9.94445 -84.34108 5349 ft 163 kts 68°
2026-04-15 19:45 9.94842 -84.33052 5131 ft 161 kts 69°
2026-04-15 19:45 9.95241 -84.31988 4937 ft 161 kts 69°
2026-04-15 19:45 9.95639 -84.30929 4727 ft 160 kts 68°
2026-04-15 19:45 9.96032 -84.29881 4504 ft 156 kts 69°
2026-04-15 19:46 9.96410 -84.28874 4290 ft 151 kts 71°
2026-04-15 19:46 9.96786 -84.27872 4100 ft 153 kts 72°
2026-04-15 19:46 9.97164 -84.26862 3886 ft 153 kts 73°
2026-04-15 19:46 9.97540 -84.25858 3683 ft 151 kts 73°
2026-04-15 19:47 9.97914 -84.24858 3505 ft 152 kts 73°
2026-04-15 19:47 9.98280 -84.23845 3276 ft 153 kts 72°
2026-04-15 19:47 9.98656 -84.22839 3108 ft 152 kts 71°
2026-04-15 19:47 9.99036 -84.21829 2976 ft 147 kts 70°
2026-04-15 19:48 9.99351 -84.20987 3017 ft 104 kts 69°
2026-04-15 19:48 9.99547 -84.20466 3037 ft 55 kts 69°
2026-04-15 19:48 9.99654 -84.20185 3037 ft 23 kts 69°
2026-04-15 19:48 9.99698 -84.20066 3039 ft 13 kts 69°
2026-04-15 19:49 9.99729 -84.20006 3037 ft 8 kts 39°
2026-04-15 19:49 9.99783 -84.20008 3036 ft 10 kts 329°
2026-04-15 19:49 9.99796 -84.20056 3034 ft 3 kts 254°
2026-04-15 19:49 9.99795 -84.20059 3034 ft 0 kts 254°
2026-04-15 19:50 9.99790 -84.20078 3034 ft 5 kts 251°
2026-04-15 19:51 9.99780 -84.20105 3034 ft 3 kts 249°
2026-04-15 19:51 9.99773 -84.20122 3034 ft 2 kts 249°
2026-04-15 19:51 9.99764 -84.20148 3034 ft 7 kts 249°
2026-04-15 19:51 9.99739 -84.20213 3035 ft 12 kts 249°
2026-04-15 19:52 9.99713 -84.20282 3034 ft 9 kts 249°
2026-04-15 19:52 9.99704 -84.20331 3034 ft 6 kts 308°
2026-04-15 19:52 9.99731 -84.20342 3033 ft 3 kts 340°
2026-04-15 19:52 9.99744 -84.20347 3034 ft 1 kts 340°
2026-04-15 19:53 9.99749 -84.20348 3034 ft 0 kts 339°